Jacksonville, FL

3:50 PM EST on December 02, 2016 (GMT -0500)
Jacksonville International

Weather History for KJAX - November, 2011

Change the Weather History Date:

Sunday, November 27, 2011

  Actual Average Record
Temperature  
Mean Temperature 67 °F 59 °F  
Max Temperature 79 °F 71 °F 83 °F (1973)
Min Temperature 55 °F 48 °F 30 °F (1903)
Degree Days  
Heating Degree Days 0 7  
Month to date heating degree days 95 124  
Since 1 July heating degree days 151 152  
Cooling Degree Days 2 1  
Month to date cooling degree days 39 56  
Year to date cooling degree days 2763 2639  
Growing Degree Days 17 (Base 50)    
Moisture  
Dew Point 58 °F    
Average Humidity 71    
Maximum Humidity 100    
Minimum Humidity 42    
Precipitation  
Precipitation 0.00 in 0.07 in 0.94 in (1893)
Month to date precipitation 1.31 1.87  
Year to date precipitation 45.95 49.35  
Snow  
Snow 0.00 in 0.00 in 0.00 in (2001)
Month to date snowfall 0.0 0.0  
Since 1 July snowfall 0.0 0.0  
Since 1 September snowfall 0.0 0.0  
Snow Depth 0.00 in    
Sea Level Pressure  
Sea Level Pressure 30.07 in    
Wind  
Wind Speed 8 mph (SE)    
Max Wind Speed 21 mph    
Max Gust Speed 24 mph    
Visibility 10 miles    
Events      
T = Trace of Precipitation, MM = Missing Value Source: NWS Daily Summary

Daily Weather History Graph

Daily Weather History Graph

Search for Another Location

Airport or City:

Trip Planner

Search our weather history database for the weather conditions in past years. The results will help you decide how hot, cold, wet, or windy it might be!

Date:

Astronomy

Nov. 27, 2011 Rise Set
Actual Time 7:02 AM EST 5:25 PM EST
Civil Twilight 6:36 AM EST 5:51 PM EST
Nautical Twilight 6:07 AM EST 6:21 PM EST
Astronomical Twilight 5:38 AM EST 6:50 PM EST
Moon 9:24 AM EST (11/27) 8:03 PM EST (11/27)
Length of Visible Light 11h 15m
Length of Day
10h 23m
Waxing Crescent, 8% of the Moon is Illuminated
Nov 27
Waxing Crescent
Dec 2
First Quarter
Dec 10
Full
Dec 17
Last Quarter
Dec 24
New

Hourly Weather History & Observations

Time (EST) Temp. Dew Point Humidity Pressure Visibility Wind Dir Wind Speed Gust Speed Precip Events Conditions
12:56 AM 55.9 °F 55.0 °F 97% 30.16 in 10.0 mi ENE 4.6 mph - N/A   Partly Cloudy
1:56 AM 57.0 °F 54.0 °F 89% 30.15 in 10.0 mi East 4.6 mph - N/A   Partly Cloudy
2:56 AM 60.1 °F 57.9 °F 93% 30.14 in 10.0 mi Calm Calm - N/A   Mostly Cloudy
3:56 AM 62.1 °F 59.0 °F 90% 30.13 in 10.0 mi Calm Calm - N/A   Mostly Cloudy
4:56 AM 63.0 °F 59.0 °F 87% 30.12 in 10.0 mi Calm Calm - N/A   Mostly Cloudy
5:56 AM 63.0 °F 59.0 °F 87% 30.12 in 10.0 mi Calm Calm - N/A   Mostly Cloudy
6:56 AM 64.0 °F 60.1 °F 87% 30.13 in 10.0 mi Calm Calm - N/A   Mostly Cloudy
7:56 AM 64.9 °F 61.0 °F 87% 30.14 in 10.0 mi Calm Calm - N/A   Mostly Cloudy
8:56 AM 69.1 °F 62.1 °F 78% 30.15 in 10.0 mi South 3.5 mph - N/A   Mostly Cloudy
9:56 AM 72.0 °F 59.0 °F 64% 30.14 in 10.0 mi South 6.9 mph - N/A   Mostly Cloudy
10:56 AM 75.0 °F 60.1 °F 60% 30.13 in 10.0 mi SE 9.2 mph - N/A   Mostly Cloudy
11:56 AM 77.0 °F 55.0 °F 47% 30.10 in 10.0 mi SE 16.1 mph 20.7 mph N/A   Mostly Cloudy
12:56 PM 79.0 °F 54.0 °F 42% 30.07 in 10.0 mi SE 15.0 mph - N/A   Mostly Cloudy
1:56 PM 77.0 °F 55.9 °F 48% 30.04 in 10.0 mi SE 13.8 mph 21.9 mph N/A   Mostly Cloudy
2:56 PM 75.9 °F 55.9 °F 50% 30.03 in 10.0 mi SE 15.0 mph - N/A   Mostly Cloudy
3:56 PM 75.9 °F 57.9 °F 54% 30.02 in 10.0 mi SE 12.7 mph - N/A   Mostly Cloudy
4:56 PM 73.9 °F 57.9 °F 57% 30.01 in 10.0 mi SE 15.0 mph - N/A   Scattered Clouds
5:56 PM 71.1 °F 57.9 °F 63% 30.01 in 10.0 mi SE 12.7 mph - N/A   Scattered Clouds
6:56 PM 70.0 °F 59.0 °F 68% 30.01 in 10.0 mi SE 12.7 mph - N/A   Scattered Clouds
7:56 PM 71.1 °F 59.0 °F 66% 30.01 in 10.0 mi SE 10.4 mph - N/A   Mostly Cloudy
8:56 PM 68.0 °F 60.1 °F 76% 30.01 in 10.0 mi SE 6.9 mph - N/A   Scattered Clouds
9:56 PM 66.0 °F 60.1 °F 81% 30.00 in 10.0 mi SSE 5.8 mph - N/A   Mostly Cloudy
10:56 PM 66.0 °F 61.0 °F 84% 29.99 in 10.0 mi SSE 5.8 mph - N/A   Mostly Cloudy
11:56 PM 68.0 °F 61.0 °F 78% 29.97 in 10.0 mi SSE 9.2 mph - N/A   Mostly Cloudy